Weather History for Lambertville, MI

Change the Weather History Date:

Friday, October 18, 2013

  Actual Average (KTOL) Record (KTOL)
Temperature  
Mean Temperature 12 °C 11 °C  
Max Temperature 19 °C 17 °C 28 °C (1950)
Min Temperature 5 °C 5 °C -8 °C (1976)
Degree Days  
Heating Degree Days 12 14  
Month to date heating degree days 199  
Since 1 July heating degree days 323  
Cooling Degree Days 0 0  
Month to date cooling degree days 8  
Year to date cooling degree days 792  
Growing Degree Days 4 (Base 50)    
Moisture  
Dew Point 5 °C    
Average Humidity 69    
Maximum Humidity 87    
Minimum Humidity 37    
Precipitation  
Precipitation 0.00 mm 2.03 mm 1.80 mm (1985)
Month to date precipitation 1.54  
Year to date precipitation 27.64  
Snow  
Snow 0.00 cm 0.00 cm - ()
Month to date snowfall 0.1  
Since 1 July snowfall 0.1  
Since 1 September snowfall 0.1  
Snow Depth -    
Sea Level Pressure  
Sea Level Pressure 1013 hPa    
Wind  
Wind Speed 10 km/h (SW)    
Max Wind Speed 24 km/h    
Max Gust Speed 34 km/h    
Visibility 15 kilometers    
Events      
T = Trace of Precipitation, MM = Missing Value Source: NWS Daily Summary

Daily Weather History Graph

Daily Weather History Graph

Search for Another Location

Airport:

Trip Planner

Search our weather history database for the weather conditions in past years. The results will help you decide how hot, cold, wet, or windy it might be!

Date:

Astronomy

Oct. 18, 2013 Rise Set
Actual Time 7:50 AM EDT 6:48 PM EDT
Civil Twilight 7:22 AM EDT 7:16 PM EDT
Nautical Twilight 6:50 AM EDT 7:48 PM EDT
Astronomical Twilight 6:17 AM EDT 8:20 PM EDT
Moon 6:37 PM EDT (10/18) 7:24 AM EDT (10/18)
Length of Visible Light 11h 54m
Length of Day
10h 57m
Full, 100% of the Moon is Illuminated
Oct 18
Full
Oct 18
Full
Oct 26
Last Quarter
Nov 3
New
Nov 10
First Quarter

Hourly Weather History & Observations

Time (EDT) Temp. Windchill Dew Point Humidity Pressure Visibility Wind Dir Wind Speed Gust Speed Precip Events Conditions
12:15 AM 10.0 °C - 7.0 °C 82% 1011.7 hPa 16.1 km West 13.0 km/h / 3.6 m/s - N/A   Overcast
12:35 AM 10.0 °C - 6.0 °C 76% 1011.7 hPa 16.1 km WSW 9.3 km/h / 2.6 m/s - N/A   Overcast
12:55 AM 10.0 °C - 6.0 °C 76% 1011.7 hPa 16.1 km WSW 7.4 km/h / 2.1 m/s - N/A   Overcast
1:15 AM 10.0 °C - 6.0 °C 76% 1012.1 hPa 16.1 km WSW 7.4 km/h / 2.1 m/s - N/A   Overcast
1:35 AM 10.0 °C - 6.0 °C 76% 1012.1 hPa 16.1 km WSW 7.4 km/h / 2.1 m/s - N/A   Overcast
1:55 AM 9.0 °C - 6.0 °C 82% 1012.4 hPa 16.1 km SW 11.1 km/h / 3.1 m/s - N/A   Overcast
2:15 AM 9.0 °C - 6.0 °C 82% 1012.4 hPa 16.1 km SW 11.1 km/h / 3.1 m/s - N/A   Scattered Clouds
2:35 AM 8.0 °C 6.4 °C 6.0 °C 87% 1012.4 hPa 16.1 km WSW 9.3 km/h / 2.6 m/s - N/A   Clear
2:55 AM 8.0 °C 6.4 °C 5.0 °C 81% 1012.4 hPa 16.1 km WSW 9.3 km/h / 2.6 m/s - N/A   Clear
3:15 AM 8.0 °C 5.8 °C 5.0 °C 81% 1012.4 hPa 16.1 km SW 13.0 km/h / 3.6 m/s - N/A   Clear
3:35 AM 7.0 °C 5.2 °C 5.0 °C 87% 1012.4 hPa 16.1 km SW 9.3 km/h / 2.6 m/s - N/A   Clear
3:55 AM 7.0 °C 4.9 °C 5.0 °C 87% 1012.4 hPa 16.1 km SW 11.1 km/h / 3.1 m/s - N/A   Clear
4:15 AM 7.0 °C 5.2 °C 5.0 °C 87% 1012.4 hPa 16.1 km SW 9.3 km/h / 2.6 m/s - N/A   Clear
4:35 AM 7.0 °C 5.2 °C 5.0 °C 87% 1012.4 hPa 16.1 km SW 9.3 km/h / 2.6 m/s - N/A   Clear
4:55 AM 7.0 °C 5.2 °C 5.0 °C 87% 1012.8 hPa 16.1 km SW 9.3 km/h / 2.6 m/s - N/A   Clear
5:15 AM 7.0 °C 5.7 °C 5.0 °C 87% 1012.8 hPa 16.1 km WSW 7.4 km/h / 2.1 m/s - N/A   Clear
5:35 AM 6.0 °C 5.0 °C 4.0 °C 87% 1012.8 hPa 16.1 km SW 5.6 km/h / 1.5 m/s - N/A   Clear
5:55 AM 6.0 °C 5.0 °C 4.0 °C 87% 1012.8 hPa 11.3 km SSW 5.6 km/h / 1.5 m/s - N/A   Clear
6:15 AM 6.0 °C 5.0 °C 4.0 °C 87% 1012.8 hPa 11.3 km SSW 5.6 km/h / 1.5 m/s - N/A   Clear
6:35 AM 5.0 °C 3.9 °C 3.0 °C 87% 1012.8 hPa 11.3 km SSW 5.6 km/h / 1.5 m/s - N/A   Clear
6:55 AM 5.0 °C 3.3 °C 3.0 °C 87% 1012.8 hPa 11.3 km SSW 7.4 km/h / 2.1 m/s - N/A   Clear
7:15 AM 5.0 °C 3.3 °C 3.0 °C 87% 1013.1 hPa 11.3 km SSW 7.4 km/h / 2.1 m/s - N/A   Clear
7:35 AM 5.0 °C 3.3 °C 3.0 °C 87% 1013.1 hPa 11.3 km SSW 7.4 km/h / 2.1 m/s - N/A   Clear
7:55 AM 5.0 °C 3.3 °C 3.0 °C 87% 1013.1 hPa 8.0 km SSW 7.4 km/h / 2.1 m/s - N/A   Clear
8:15 AM 5.0 °C 2.8 °C 3.0 °C 87% 1013.1 hPa 8.0 km SSW 9.3 km/h / 2.6 m/s - N/A   Clear
8:35 AM 6.0 °C 5.0 °C 4.0 °C 87% 1013.4 hPa 8.0 km SSW 5.6 km/h / 1.5 m/s - N/A   Clear
8:55 AM 6.0 °C 3.7 °C 4.0 °C 87% 1013.4 hPa 11.3 km SSW 11.1 km/h / 3.1 m/s - N/A   Clear
9:15 AM 7.0 °C 5.7 °C 5.0 °C 87% 1013.4 hPa 11.3 km SSW 7.4 km/h / 2.1 m/s - N/A   Clear
9:35 AM 8.0 °C 5.8 °C 5.0 °C 81% 1013.4 hPa 16.1 km SW 13.0 km/h / 3.6 m/s - N/A   Clear
9:55 AM 10.0 °C - 5.0 °C 71% 1013.8 hPa 16.1 km SW 9.3 km/h / 2.6 m/s - N/A   Clear
10:15 AM 11.0 °C - 5.0 °C 67% 1013.8 hPa 16.1 km SSW 11.1 km/h / 3.1 m/s - N/A   Clear
10:35 AM 11.0 °C - 6.0 °C 71% 1013.8 hPa 16.1 km WSW 9.3 km/h / 2.6 m/s - N/A   Clear
10:55 AM 12.0 °C - 6.0 °C 67% 1013.8 hPa 16.1 km WSW 14.8 km/h / 4.1 m/s - N/A   Clear
11:15 AM 12.0 °C - 6.0 °C 67% 1013.8 hPa 16.1 km SSW 13.0 km/h / 3.6 m/s - N/A   Clear
11:35 AM 13.0 °C - 6.0 °C 63% 1013.8 hPa 16.1 km SW 11.1 km/h / 3.1 m/s - N/A   Clear
11:55 AM 14.0 °C - 6.0 °C 59% 1013.4 hPa 16.1 km SSW 13.0 km/h / 3.6 m/s - N/A   Mostly Cloudy
12:15 PM 15.0 °C - 7.0 °C 59% 1013.4 hPa 16.1 km SW 9.3 km/h / 2.6 m/s - N/A   Mostly Cloudy
12:35 PM 16.0 °C - 7.0 °C 55% 1013.4 hPa 16.1 km SSW 13.0 km/h / 3.6 m/s - N/A   Scattered Clouds
12:55 PM 16.0 °C - 6.0 °C 52% 1013.1 hPa 16.1 km SSW 14.8 km/h / 4.1 m/s - N/A   Clear
1:15 PM 17.0 °C - 6.0 °C 48% 1012.8 hPa 16.1 km South 9.3 km/h / 2.6 m/s - N/A   Clear
1:35 PM 17.0 °C - 6.0 °C 48% 1012.4 hPa 16.1 km SSW 16.7 km/h / 4.6 m/s 25.9 km/h / 7.2 m/s N/A   Clear
1:55 PM 17.0 °C - 5.0 °C 45% 1012.1 hPa 16.1 km SSW 13.0 km/h / 3.6 m/s - N/A   Clear
2:15 PM 18.0 °C - 5.0 °C 42% 1012.1 hPa 16.1 km WSW 20.4 km/h / 5.7 m/s 25.9 km/h / 7.2 m/s N/A   Clear
2:35 PM 18.0 °C - 5.0 °C 42% 1011.7 hPa 16.1 km SW 18.5 km/h / 5.1 m/s 31.5 km/h / 8.7 m/s N/A   Clear
2:55 PM 18.0 °C - 6.0 °C 45% 1011.7 hPa 16.1 km SSW 24.1 km/h / 6.7 m/s 33.3 km/h / 9.3 m/s N/A   Scattered Clouds
3:15 PM 17.0 °C - 6.0 °C 48% 1011.4 hPa 16.1 km SW 14.8 km/h / 4.1 m/s - N/A   Scattered Clouds
3:35 PM 18.0 °C - 6.0 °C 45% 1011.4 hPa 16.1 km WSW 14.8 km/h / 4.1 m/s 29.6 km/h / 8.2 m/s N/A   Mostly Cloudy
3:55 PM 19.0 °C - 5.0 °C 40% 1011.4 hPa 16.1 km WSW 22.2 km/h / 6.2 m/s 33.3 km/h / 9.3 m/s N/A   Mostly Cloudy
4:15 PM 17.0 °C - 4.0 °C 42% 1011.4 hPa 16.1 km WSW 16.7 km/h / 4.6 m/s - N/A   Mostly Cloudy
4:35 PM 18.0 °C - 3.0 °C 37% 1011.4 hPa 16.1 km SW 20.4 km/h / 5.7 m/s 31.5 km/h / 8.7 m/s N/A   Scattered Clouds
4:55 PM 18.0 °C - 3.0 °C 37% 1011.4 hPa 16.1 km West 14.8 km/h / 4.1 m/s 25.9 km/h / 7.2 m/s N/A   Scattered Clouds
5:15 PM 17.0 °C - 3.0 °C 39% 1011.4 hPa 16.1 km WSW 13.0 km/h / 3.6 m/s - N/A   Clear
5:35 PM 17.0 °C - 3.0 °C 39% 1011.4 hPa 16.1 km WSW 13.0 km/h / 3.6 m/s 27.8 km/h / 7.7 m/s N/A   Scattered Clouds
5:55 PM 17.0 °C - 3.0 °C 39% 1011.4 hPa 16.1 km West 13.0 km/h / 3.6 m/s - N/A   Scattered Clouds
6:15 PM 16.0 °C - 3.0 °C 42% 1011.4 hPa 16.1 km WSW 9.3 km/h / 2.6 m/s - N/A   Clear
6:35 PM 15.0 °C - 4.0 °C 48% 1011.7 hPa 16.1 km Calm Calm - N/A   Scattered Clouds
6:55 PM 13.0 °C - 5.0 °C 58% 1011.7 hPa 16.1 km Calm Calm - N/A   Scattered Clouds
7:15 PM 12.0 °C - 6.0 °C 67% 1012.1 hPa 16.1 km Calm Calm - N/A   Scattered Clouds
7:35 PM 10.0 °C - 6.0 °C 76% 1012.1 hPa 16.1 km SW 5.6 km/h / 1.5 m/s - N/A   Scattered Clouds
7:55 PM 10.0 °C - 6.0 °C 76% 1012.4 hPa 16.1 km WSW 5.6 km/h / 1.5 m/s - N/A   Scattered Clouds
8:15 PM 12.0 °C - 5.0 °C 62% 1012.4 hPa 16.1 km WSW 7.4 km/h / 2.1 m/s - N/A   Clear
8:35 PM 12.0 °C - 5.0 °C 62% 1012.4 hPa 16.1 km WSW 5.6 km/h / 1.5 m/s - N/A   Clear
8:55 PM 12.0 °C - 5.0 °C 62% 1012.4 hPa 16.1 km West 5.6 km/h / 1.5 m/s - N/A   Clear
9:15 PM 11.0 °C - 5.0 °C 67% 1012.8 hPa 16.1 km Calm Calm - N/A   Clear
9:35 PM 11.0 °C - 5.0 °C 67% 1013.1 hPa 16.1 km West 5.6 km/h / 1.5 m/s - N/A   Clear
9:55 PM 11.0 °C - 5.0 °C 67% 1013.4 hPa 16.1 km West 16.7 km/h / 4.6 m/s - N/A   Clear
10:15 PM 10.0 °C - 6.0 °C 76% 1013.4 hPa 16.1 km WNW 7.4 km/h / 2.1 m/s - N/A   Clear
10:35 PM 10.0 °C - 6.0 °C 76% 1013.4 hPa 11.3 km WNW 7.4 km/h / 2.1 m/s - N/A   Clear
10:55 PM 9.0 °C - 6.0 °C 82% 1013.4 hPa 11.3 km West 5.6 km/h / 1.5 m/s - N/A   Clear
11:15 PM 9.0 °C - 5.0 °C 76% 1013.4 hPa 16.1 km West 9.3 km/h / 2.6 m/s - N/A   Clear
11:35 PM 8.0 °C 6.4 °C 5.0 °C 81% 1013.4 hPa 16.1 km West 9.3 km/h / 2.6 m/s - N/A   Clear
11:55 PM 8.0 °C 7.3 °C 5.0 °C 81% 1013.8 hPa 11.3 km WSW 5.6 km/h / 1.5 m/s - N/A   Clear